Location: Tr�vern
(48.0333°N, 4.6000°W)
Time: 02:51:39
(UTC+00:00)

Cosmos 1242 Rocket - Pass Details

Date: 14 July 2020
Orbit: 447 x 487 km, 81.2° (Epoch: 04 August)

Event Time Altitude Azimuth Distance (km) Brightness Sun altitude
Rises 03:15:38 0° 348° (NNW) 2,465 6.7 -10.5°
Reaches altitude 10° 03:17:42 10° 349° (NNW) 1,589 5.7 -10.3°
Maximum altitude 03:21:11 90° 141° (SE) 458 2.4 -9.9°
Drops below altitude 10° 03:24:38 10° 170° (S) 1,586 4.8 -9.5°
Enters shadow 03:26:20 - 170° (S) 2,302 5.6 -9.3°
